Location: Usti nad Labem
(50.6670°N, 14.0330°E)
Time: 22:46:24
(UTC+01:00)

ISS - Visible Passes

Search period start: 25 March 2017 00:00
Search period end: 04 April 2017 01:00
Orbit: 399 x 409 km, 51.6° (Epoch: 26 March)

Date Brightness Start Highest point End Pass type
(mag) Time Alt. Az. Time Alt. Az. Time Alt. Az.
28 Mar -2.6 20:59:30 10° SSW 21:01:53 24° SSE 21:01:53 24° SSE visible
29 Mar -2.0 20:07:56 10° S 20:10:04 16° SE 20:12:12 10° E visible
29 Mar -2.8 21:42:50 10° WSW 21:45:01 37° SW 21:45:01 37° SW visible
30 Mar -3.4 20:50:37 10° SW 20:53:44 43° SSE 20:55:14 25° E visible
30 Mar -1.3 22:26:50 10° W 22:27:54 19° W 22:27:54 19° W visible
31 Mar -4.0 21:34:24 10° WSW 21:37:41 90° ENE 21:37:56 74° ENE visible
01 Apr -3.9 20:42:00 10° WSW 20:45:15 70° SSE 20:47:49 15° E visible
01 Apr -2.2 22:18:30 10° W 22:20:29 33° WNW 22:20:29 33° WNW visible
02 Apr -3.8 21:26:01 10° W 21:29:17 74° N 21:30:15 42° ENE visible
02 Apr -0.7 23:02:34 10° WNW 23:02:54 12° WNW 23:02:54 12° WNW visible
03 Apr -3.8 20:33:32 10° W 20:36:48 85° NNW 20:39:56 11° ENE visible
03 Apr -2.9 22:10:06 10° W 22:12:35 48° WNW 22:12:35 48° WNW visible
